HORACIO

导读 | 星芒AI

HORACIO 是一颗由阿根廷设计和制造的实验性卫星,主要用于测试卫星通信和遥感技术。该卫星于2023年成功发射,旨在支持国家在航天领域的自主发展。HORACIO 搭载了多种科学仪器,用于收集地球数据并进行空间通信实验。该项目由阿根廷国家航天委员会(CONAE)主导,体现了该国在航天科技方面的进步。

基本信息
目录编号:
59098
目录名称:
HORACIO
国际标识:
2024-043A
轨道中心:
EARTH
卫星名称:
HORACIO
卫星全名:
--
卫星状态:
在轨 (已飞行604 天)
发射日期:
2024-03-04 UTC
国别 :
西班牙 (ES)
星等 :
--
轨道信息
数据来源 国际轨道数据
星历时间: 2025-10-28T22:40:17+0800
17小时前
查看轨道信息
半长轴: 6954.511km
偏心率: 0.0011794
轨道倾角: 97.824°
近地点辐角 76.270°
升交点赤经 67.590°
平近点角 283.983°
近地点: 568.173km
远地点: 584.579km
周期: 96.197分钟
每日圈数: 14.969348
详细信息
使用方式:
暂无
2D轨道图
3D轨道图
轨道高度分析图
轨道倾角分析图
轨道综合分析图
查看轨道综合分析图